Location: Bagnolo San Vito
(45.0833°N, 10.8833°E)
Time: 00:32:51
(UTC+00:00)

Cosmos 2219 Rocket - Pass Details

Date: 03 March 2021
Orbit: 826 x 848 km, 71.0° (Epoch: 17 April)

Event Time Altitude Azimuth Distance (km) Brightness Sun altitude
Rises 17:41:40 0° 149° (SSE) 3,353 5.0 -7.0°
Reaches altitude 10° 17:45:30 10° 122° (ESE) 2,429 4.1 -7.7°
Maximum altitude 17:47:54 13° 96° (E) 2,232 3.7 -8.1°
Drops below altitude 10° 17:50:17 10° 71° (ENE) 2,441 4.0 -8.5°
Enters shadow 17:53:18 - 49° (NE) 3,138 4.7 -9.0°
